| time (UTC) | temp F | wind direction | speed MPH | gust MPH | rain 1hr in | rain 24hr in | rain mn in | humidity % | barometer mb |
| 20260831002037 | 69 | 180 | 3.0 | 5.0 | 0.00 | 0.03 | 0.00 | 50 | 1016.9 |
| 20260831000516 | 69 | 180 | 2.0 | 5.0 | 0.00 | 0.03 | 0.00 | 52 | 1016.9 |
| 20260830235017 | 69 | 180 | 2.0 | 4.0 | 0.00 | 0.03 | 0.00 | 52 | 1017.0 |
| 20260830233517 | 69 | 225 | 1.0 | 4.0 | 0.00 | 0.03 | 0.00 | 52 | 1017.0 |
| 20260830232017 | 68 | 180 | 2.0 | 4.0 | 0.00 | 0.04 | 0.00 | 52 | 1017.1 |
| 20260830230516 | 68 | 180 | 2.0 | 6.0 | 0.00 | 0.04 | 0.00 | 55 | 1017.0 |
| 20260830225017 | 69 | 180 | 2.0 | 4.0 | 0.00 | 0.04 | 0.00 | 54 | 1017.3 |
| 20260830223516 | 68 | 203 | 2.0 | 4.0 | 0.00 | 0.04 | 0.00 | 55 | 1017.2 |
| 20260830222017 | 68 | 180 | 2.0 | 6.0 | 0.00 | 0.04 | 0.00 | 54 | 1017.2 |
| 20260830220516 | 68 | 180 | 2.0 | 5.0 | 0.00 | 0.04 | 0.00 | 53 | 1017.3 |
| 20260830215037 | 68 | 180 | 3.0 | 7.0 | 0.00 | 0.04 | 0.00 | 53 | 1017.5 |
| 20260830213516 | 68 | 180 | 4.0 | 7.0 | 0.00 | 0.05 | 0.00 | 56 | 1017.5 |
| 20260830212017 | 68 | 180 | 3.0 | 7.0 | 0.00 | 0.07 | 0.00 | 54 | 1017.5 |
| 20260830210516 | 67 | 180 | 4.0 | 6.0 | 0.00 | 0.09 | 0.00 | 57 | 1017.5 |
| 20260830205016 | 67 | 180 | 4.0 | 6.0 | 0.00 | 0.09 | 0.00 | 58 | 1017.4 |
| 20260830203516 | 66 | 180 | 4.0 | 6.0 | 0.00 | 0.10 | 0.00 | 59 | 1017.5 |
| 20260830202016 | 66 | 180 | 3.0 | 6.0 | 0.00 | 0.14 | 0.00 | 61 | 1017.6 |
| 20260830200516 | 65 | 180 | 2.0 | 5.0 | 0.00 | 0.20 | 0.00 | 66 | 1017.6 |
| 20260830195016 | 64 | 180 | 2.0 | 5.0 | 0.00 | 0.22 | 0.00 | 66 | 1017.6 |
| 20260830193516 | 64 | 180 | 3.0 | 6.0 | 0.00 | 0.37 | 0.00 | 69 | 1017.6 |
| 20260830192016 | 65 | 180 | 5.0 | 9.0 | 0.00 | 0.50 | 0.00 | 67 | 1017.6 |
| 20260830190516 | 65 | 158 | 4.0 | 8.0 | 0.00 | 0.51 | 0.00 | 67 | 1017.7 |
| 20260830185016 | 64 | 180 | 5.0 | 7.0 | 0.00 | 0.53 | 0.00 | 66 | 1017.8 |
| 20260830183516 | 63 | 180 | 5.0 | 9.0 | 0.00 | 0.54 | 0.00 | 69 | 1017.9 |
| 20260830182016 | 62 | 180 | 5.0 | 9.0 | 0.00 | 0.55 | 0.00 | 71 | 1017.8 |
| 20260830180516 | 62 | 158 | 3.0 | 7.0 | 0.00 | 0.55 | 0.00 | 73 | 1017.7 |
| 20260830175056 | 61 | 248 | 3.0 | 7.0 | 0.00 | 0.55 | 0.00 | 73 | 1017.7 |
| 20260830173516 | 62 | 248 | 4.0 | 8.0 | 0.00 | 0.55 | 0.00 | 71 | 1017.7 |
| 20260830172016 | 62 | 248 | 5.0 | 8.0 | 0.00 | 0.55 | 0.00 | 70 | 1017.6 |
| 20260830170516 | 63 | 225 | 4.0 | 11.0 | 0.00 | 0.55 | 0.00 | 69 | 1017.5 |
| 20260830165016 | 62 | 180 | 3.0 | 7.0 | 0.00 | 0.56 | 0.00 | 70 | 1017.6 |
| 20260830163516 | 62 | 203 | 2.0 | 6.0 | 0.00 | 0.56 | 0.00 | 68 | 1017.5 |
| 20260830162015 | 62 | 180 | 4.0 | 8.0 | 0.00 | 0.56 | 0.00 | 68 | 1017.4 |
| 20260830160515 | 62 | 225 | 2.0 | 5.0 | 0.00 | 0.57 | 0.00 | 68 | 1017.3 |
| 20260830155016 | 62 | 203 | 2.0 | 3.0 | 0.00 | 0.60 | 0.00 | 69 | 1017.1 |
| 20260830153515 | 61 | 248 | 2.0 | 6.0 | 0.00 | 0.61 | 0.00 | 69 | 1017.0 |
| 20260830152015 | 61 | 248 | 3.0 | 7.0 | 0.00 | 0.61 | 0.00 | 70 | 1016.9 |
| 20260830150516 | 61 | 248 | 2.0 | 5.0 | 0.00 | 0.61 | 0.00 | 70 | 1016.8 |
| 20260830145016 | 61 | 248 | 3.0 | 6.0 | 0.00 | 0.61 | 0.00 | 70 | 1016.6 |
| 20260830143516 | 61 | 248 | 3.0 | 7.0 | 0.00 | 0.61 | 0.00 | 68 | 1016.5 |
| 20260830142016 | 60 | 0.0 | 2.0 | 0.00 | 0.61 | 0.00 | 69 | 1016.3 | |
| 20260830140515 | 60 | 248 | 2.0 | 5.0 | 0.00 | 0.61 | 0.00 | 69 | 1016.3 |
| 20260830135015 | 60 | 248 | 1.0 | 4.0 | 0.00 | 0.61 | 0.00 | 70 | 1016.1 |
| 20260830133517 | 59 | 248 | 1.0 | 4.0 | 0.00 | 0.61 | 0.00 | 73 | 1016.1 |
| 20260830132016 | 59 | 225 | 2.0 | 6.0 | 0.00 | 0.61 | 0.00 | 76 | 1016.1 |
| 20260830130515 | 58 | 270 | 4.0 | 8.0 | 0.00 | 0.61 | 0.00 | 76 | 1016.0 |
| 20260830125016 | 58 | 248 | 2.0 | 3.0 | 0.00 | 0.61 | 0.00 | 76 | 1016.1 |
| 20260830123515 | 58 | 225 | 4.0 | 8.0 | 0.00 | 0.61 | 0.00 | 74 | 1016.1 |
| 20260830122016 | 58 | 248 | 2.0 | 5.0 | 0.00 | 0.61 | 0.00 | 73 | 1016.0 |
| 20260830120515 | 58 | 0.0 | 2.0 | 0.00 | 0.61 | 0.00 | 72 | 1016.0 | |
| 20260830115015 | 58 | 248 | 2.0 | 5.0 | 0.00 | 0.61 | 0.00 | 72 | 1016.0 |
| 20260830113515 | 59 | 270 | 2.0 | 4.0 | 0.00 | 0.62 | 0.00 | 68 | 1016.1 |
| 20260830112017 | 58 | 225 | 1.0 | 4.0 | 0.00 | 0.62 | 0.00 | 72 | 1016.0 |
| 20260830110517 | 58 | 248 | 1.0 | 3.0 | 0.00 | 0.62 | 0.00 | 75 | 1016.0 |
| 20260830105017 | 58 | 248 | 1.0 | 2.0 | 0.00 | 0.62 | 0.00 | 75 | 1015.9 |
| 20260830103537 | 57 | 270 | 1.0 | 6.0 | 0.00 | 0.62 | 0.00 | 77 | 1015.9 |
| 20260830102037 | 57 | 270 | 1.0 | 3.0 | 0.00 | 0.62 | 0.00 | 76 | 1015.7 |
| 20260830100537 | 57 | 270 | 1.0 | 1.0 | 0.00 | 0.62 | 0.00 | 77 | 1015.7 |
| 20260830095017 | 58 | 270 | 2.0 | 3.0 | 0.00 | 0.62 | 0.00 | 77 | 1015.7 |
| 20260830093517 | 59 | 248 | 2.0 | 4.0 | 0.00 | 0.62 | 0.00 | 74 | 1015.7 |
| 20260830092017 | 59 | 248 | 1.0 | 3.0 | 0.00 | 0.62 | 0.00 | 75 | 1015.7 |
| 20260830090517 | 59 | 270 | 2.0 | 6.0 | 0.00 | 0.62 | 0.00 | 76 | 1015.6 |
| 20260830085017 | 59 | 248 | 2.0 | 4.0 | 0.00 | 0.62 | 0.00 | 76 | 1015.5 |
| 20260830083517 | 59 | 248 | 2.0 | 4.0 | 0.00 | 0.62 | 0.00 | 75 | 1015.3 |
| 20260830082017 | 58 | 270 | 2.0 | 6.0 | 0.00 | 0.62 | 0.00 | 77 | 1015.2 |
| 20260830080517 | 59 | 270 | 2.0 | 6.0 | 0.00 | 0.62 | 0.00 | 77 | 1015.2 |
| 20260830075017 | 59 | 248 | 2.0 | 3.0 | 0.00 | 0.62 | 0.00 | 77 | 1015.4 |
| 20260830073536 | 59 | 248 | 3.0 | 8.0 | 0.00 | 0.62 | 0.00 | 79 | 1015.4 |
| 20260830072016 | 59 | 248 | 3.0 | 7.0 | 0.00 | 0.62 | 0.00 | 80 | 1015.5 |
| 20260830070517 | 59 | 248 | 3.0 | 7.0 | 0.00 | 0.62 | 0.00 | 81 | 1015.6 |
| 20260830065015 | 58 | 248 | 3.0 | 5.0 | 0.00 | 0.62 | 0.62 | 82 | 1015.6 |
| 20260830063536 | 58 | 248 | 3.0 | 8.0 | 0.00 | 0.62 | 0.62 | 83 | 1015.7 |
| 20260830062016 | 58 | 248 | 3.0 | 5.0 | 0.00 | 0.62 | 0.62 | 82 | 1015.8 |
| 20260830060515 | 58 | 225 | 2.0 | 4.0 | 0.00 | 0.62 | 0.62 | 83 | 1015.8 |
| 20260830055015 | 58 | 248 | 3.0 | 5.0 | 0.00 | 0.62 | 0.62 | 82 | 1015.9 |
| 20260830053516 | 58 | 248 | 3.0 | 5.0 | 0.00 | 0.62 | 0.62 | 84 | 1016.0 |
| 20260830052015 | 58 | 270 | 2.0 | 4.0 | 0.00 | 0.62 | 0.62 | 85 | 1016.1 |
| 20260830050516 | 58 | 248 | 3.0 | 6.0 | 0.00 | 0.62 | 0.62 | 84 | 1016.0 |
| 20260830045016 | 58 | 248 | 3.0 | 6.0 | 0.00 | 0.62 | 0.62 | 84 | 1016.0 |
| 20260830043515 | 58 | 248 | 2.0 | 7.0 | 0.00 | 0.62 | 0.62 | 84 | 1016.0 |
| 20260830042015 | 58 | 248 | 2.0 | 4.0 | 0.00 | 0.62 | 0.62 | 84 | 1016.0 |
| 20260830040515 | 58 | 248 | 4.0 | 7.0 | 0.00 | 0.62 | 0.62 | 84 | 1015.8 |
| 20260830035015 | 58 | 270 | 2.0 | 5.0 | 0.00 | 0.62 | 0.62 | 85 | 1015.8 |
| 20260830033555 | 58 | 270 | 2.0 | 6.0 | 0.00 | 0.62 | 0.62 | 85 | 1015.5 |
| 20260830032035 | 57 | 248 | 3.0 | 7.0 | 0.00 | 0.62 | 0.62 | 86 | 1015.5 |
| 20260830030515 | 57 | 248 | 2.0 | 4.0 | 0.00 | 0.62 | 0.62 | 86 | 1015.3 |
| 20260830025017 | 57 | 248 | 2.0 | 4.0 | 0.01 | 0.62 | 0.62 | 86 | 1015.3 |
| 20260830023518 | 57 | 248 | 2.0 | 4.0 | 0.02 | 0.62 | 0.62 | 87 | 1015.2 |
| 20260830022017 | 57 | 248 | 1.0 | 3.0 | 0.03 | 0.62 | 0.62 | 88 | 1015.0 |
| 20260830020517 | 57 | 248 | 1.0 | 3.0 | 0.03 | 0.62 | 0.62 | 88 | 1015.2 |
| 20260830015057 | 57 | 248 | 3.0 | 7.0 | 0.02 | 0.61 | 0.61 | 87 | 1015.1 |
| 20260830013517 | 58 | 270 | 2.0 | 6.0 | 0.02 | 0.61 | 0.61 | 86 | 1015.2 |
| 20260830012017 | 58 | 270 | 1.0 | 2.0 | 0.00 | 0.59 | 0.59 | 84 | 1015.3 |
| 20260830010517 | 58 | 270 | 2.0 | 4.0 | 0.00 | 0.59 | 0.59 | 82 | 1015.2 |
| 20260830005017 | 58 | 225 | 1.0 | 4.0 | 0.00 | 0.59 | 0.59 | 83 | 1014.8 |
| 20260830003517 | 58 | 225 | 1.0 | 3.0 | 0.00 | 0.59 | 0.59 | 83 | 1014.8 |